Home > Weather > Spydeberg > Past weeks

Flag for Norway Weather for the Past 2 Weeks in Spydeberg, Norway

Now
39 °F

Light rain. Broken clouds.


Feels Like: 39 °F
Forecast: 35 / 49 °F
Wind: 2 mph from North

Location: Rygge

Current Time: Apr 30, 2016 at 6:10:07 PM

Latest Report: Apr 30, 2016 at 5:20 PM


Visibility: N/A

Pressure: 30.15 "Hg

Humidity: 93%

Dew Point: 37 °F

Location of SpydebergLocation

Historic Weather in Spydeberg — Graph

°F

Spydeberg Temperature Yesterday

Maximum temperature yesterday: 48 °F (at 3:20 PM)
Minimum temperature yesterday: 37 °F (at 1:50 AM)
Average temperature yesterday: 44 °F

High & Low Weather Summary for the Past Weeks

 TemperatureHumidityPressure
High57 °F (Apr 19, 4:20 PM)100% (Apr 16, 10:50 PM)30.24 "Hg (Apr 16, 10:50 PM)
Low28 °F (Apr 23, 5:20 AM)24% (Apr 22, 4:50 PM)29.33 "Hg (Apr 17, 3:20 AM)
Average43 °F66%29.77 "Hg
* Reported Apr 15 4:20 PM — Apr 30 4:50 PM, Spydeberg, Weather by CustomWeather, © 2016

Note: Actual official high and low records may vary slightly from our data, if they occured in-between our weather recording intervals... More about our weather records

Advertising

Spydeberg Weather History for the Previous 24 Hours

Scroll right to see more
 ConditionsComfort  
Time TempWeatherWind HumidityBarometerVisibility
4:50 PM
Sat, Apr 30
39 °FRain. Broken clouds.3 mph93%30.15 "Hg4 mi
4:20 PM39 °FLight rain. Broken clouds.1 mph93%30.15 "Hg4 mi
3:50 PM41 °FLight rain. Broken clouds.1 mph87%30.15 "Hg4 mi
3:20 PM39 °FLight rain. Mostly cloudy.1 mph93%30.12 "Hg4 mi
2:50 PM39 °FLight rain. Broken clouds.1 mph93%30.12 "Hg5 mi
2:20 PM39 °FRain. Broken clouds.5 mph93%30.12 "HgN/A
1:50 PM39 °FLight rain. Broken clouds.5 mph93%30.12 "Hg6 mi
1:20 PM39 °FLight rain. Mostly cloudy.5 mph93%30.09 "HgN/A
12:50 PM39 °FLight rain. Cloudy.5 mph93%30.09 "Hg6 mi
12:20 PM39 °FLight rain. Broken clouds.5 mph93%30.09 "HgN/A
11:50 AM39 °FLight rain. Broken clouds.7 mph93%30.09 "Hg4 mi
11:20 AM41 °FLight rain. Broken clouds.10 mph87%30.09 "HgN/A
10:50 AM41 °FLight rain. Partly sunny.8 mph93%30.09 "HgN/A
10:20 AM39 °FRain. Broken clouds.2 mph100%30.09 "Hg4 mi
9:50 AM39 °FRain. Partly sunny.3 mph93%30.09 "Hg4 mi
8:50 AM39 °FLight rain. Partly sunny.6 mph93%30.07 "HgN/A
8:20 AM37 °FLight rain. Partly sunny.6 mph100%30.07 "HgN/A
7:50 AM37 °FLight rain. Broken clouds.5 mph93%30.07 "HgN/A
7:20 AM37 °FDrizzle. Broken clouds.5 mph93%30.07 "HgN/A
6:50 AM37 °FLight rain. Broken clouds.5 mph93%30.07 "HgN/A
6:20 AM37 °FLight rain. Broken clouds.7 mph93%30.07 "HgN/A
5:50 AM37 °FLight rain. Partly cloudy.7 mph93%30.07 "Hg6 mi
5:20 AM37 °FRain. Mostly cloudy.7 mph93%30.07 "HgN/A
4:50 AM37 °FRain. Fog.9 mph100%30.07 "HgN/A
4:20 AM37 °FLight rain. Fog.8 mph100%30.07 "HgN/A
3:50 AM39 °FLight rain. Fog.9 mph93%30.04 "HgN/A
2:50 AM39 °FPassing clouds.9 mph93%30.04 "HgN/A
1:50 AM39 °FPartly cloudy.10 mph93%30.04 "HgN/A
1:20 AM39 °FMostly cloudy.12 mph93%30.01 "HgN/A
12:50 AM37 °FLight rain. Mostly cloudy.10 mph93%30.04 "HgN/A
12:20 AM37 °FRain. Mostly cloudy.13 mph93%30.01 "Hg4 mi
11:50 PM
Fri, Apr 29
39 °FRain. Overcast.14 mph93%30.01 "Hg4 mi
11:20 PM41 °FRain. Overcast.13 mph87%29.98 "HgN/A
10:50 PM43 °FLight rain. Mostly cloudy.21 mph76%29.98 "Hg6 mi
10:20 PM43 °FLight rain. Passing clouds.21 mph76%29.98 "HgN/A
9:50 PM45 °FScattered clouds.15 mph66%29.98 "HgN/A
9:20 PM45 °FDrizzle. Partly sunny.17 mph66%29.98 "HgN/A
8:50 PM45 °FPartly sunny.14 mph71%29.98 "HgN/A
8:20 PM46 °FPartly sunny.13 mph66%29.98 "HgN/A
7:50 PM46 °FDrizzle. Partly sunny.18 mph62%29.98 "HgN/A
7:20 PM46 °FPartly sunny.15 mph62%29.98 "HgN/A
6:50 PM48 °FSunny.13 mph50%29.98 "Hg10 mi
6:20 PM48 °FSunny.10 mph50%29.98 "Hg10 mi
Weather by CustomWeather, © 2016

See weather overviewHow to use our weather pages